Year,Month,Day,Hour,Minute,Value (Times are PST for temperature in C)
2015,05,28,00,00,17.10
2015,05,28,00,01,17.10
2015,05,28,00,02,17.10
2015,05,28,00,03,17.10
2015,05,28,00,04,17.10
2015,05,28,00,05,17.10
2015,05,28,00,06,17.10
2015,05,28,00,07,17.10
2015,05,28,00,08,17.10
2015,05,28,00,09,17.10
2015,05,28,00,10,17.10
2015,05,28,00,11,17.00
2015,05,28,00,12,17.00
2015,05,28,00,13,16.90
2015,05,28,00,14,16.90
2015,05,28,00,15,16.90
2015,05,28,00,16,16.80
2015,05,28,00,17,16.80
2015,05,28,00,18,16.80
2015,05,28,00,19,16.80
2015,05,28,00,20,16.70
2015,05,28,00,21,16.70
2015,05,28,00,22,16.60
2015,05,28,00,23,16.60
2015,05,28,00,24,16.50
2015,05,28,00,25,16.50
2015,05,28,00,26,16.40
2015,05,28,00,27,16.30
2015,05,28,00,28,16.30
2015,05,28,00,29,16.20
2015,05,28,00,30,16.10
2015,05,28,00,31,16.10
2015,05,28,00,32,16.00
2015,05,28,00,33,15.90
2015,05,28,00,34,15.90
2015,05,28,00,35,15.80
2015,05,28,00,36,15.80
2015,05,28,00,37,15.80
2015,05,28,00,38,15.80
2015,05,28,00,39,15.80
2015,05,28,00,40,15.80
2015,05,28,00,41,15.80
2015,05,28,00,42,15.80
2015,05,28,00,43,15.90
2015,05,28,00,44,15.90
2015,05,28,00,45,16.00
2015,05,28,00,46,16.00
2015,05,28,00,47,16.10
2015,05,28,00,48,16.10
2015,05,28,00,49,16.20
2015,05,28,00,50,16.20
2015,05,28,00,51,16.20
2015,05,28,00,52,16.20
2015,05,28,00,53,16.20
2015,05,28,00,54,16.20
2015,05,28,00,55,16.20
2015,05,28,00,56,16.20
2015,05,28,00,57,16.20
2015,05,28,00,58,16.20
2015,05,28,00,59,16.20
2015,05,28,01,00,16.20
2015,05,28,01,01,16.20
2015,05,28,01,02,16.20
2015,05,28,01,03,16.20
2015,05,28,01,04,16.20
2015,05,28,01,05,16.20
2015,05,28,01,06,16.20
2015,05,28,01,07,16.20
2015,05,28,01,08,16.20
2015,05,28,01,09,16.20
2015,05,28,01,10,16.20
2015,05,28,01,11,16.20
2015,05,28,01,12,16.20
2015,05,28,01,13,16.20
2015,05,28,01,14,16.20
2015,05,28,01,15,16.20
2015,05,28,01,16,16.20
2015,05,28,01,17,16.20
2015,05,28,01,18,16.20
2015,05,28,01,19,16.20
2015,05,28,01,20,16.20
2015,05,28,01,21,16.20
2015,05,28,01,22,16.20
2015,05,28,01,23,16.20
2015,05,28,01,24,16.20
2015,05,28,01,25,16.20
2015,05,28,01,26,16.20
2015,05,28,01,27,16.20
2015,05,28,01,28,16.20
2015,05,28,01,29,16.20
2015,05,28,01,30,16.20
2015,05,28,01,31,16.20
2015,05,28,01,32,16.20
2015,05,28,01,33,16.10
2015,05,28,01,34,16.10
2015,05,28,01,35,16.10
2015,05,28,01,36,16.10
2015,05,28,01,37,16.10
2015,05,28,01,38,16.10
2015,05,28,01,39,16.10
2015,05,28,01,40,16.10
2015,05,28,01,41,16.10
2015,05,28,01,42,16.10
2015,05,28,01,43,16.10
2015,05,28,01,44,16.10
2015,05,28,01,45,16.10
2015,05,28,01,46,16.10
2015,05,28,01,47,16.20
2015,05,28,01,48,16.20
2015,05,28,01,49,16.20
2015,05,28,01,50,16.20
2015,05,28,01,51,16.20
2015,05,28,01,52,16.20
2015,05,28,01,53,16.20
2015,05,28,01,54,16.20
2015,05,28,01,55,16.20
2015,05,28,01,56,16.10
2015,05,28,01,57,16.10
2015,05,28,01,58,16.10
2015,05,28,01,59,16.10
2015,05,28,02,00,16.10
2015,05,28,02,01,16.00
2015,05,28,02,02,16.00
2015,05,28,02,03,16.00
2015,05,28,02,04,15.90
2015,05,28,02,05,15.90
2015,05,28,02,06,15.90
2015,05,28,02,07,15.90
2015,05,28,02,08,15.80
2015,05,28,02,09,15.80
2015,05,28,02,10,15.80
2015,05,28,02,11,15.70
2015,05,28,02,12,15.70
2015,05,28,02,13,15.70
2015,05,28,02,14,15.60
2015,05,28,02,15,15.60
2015,05,28,02,16,15.60
2015,05,28,02,17,15.60
2015,05,28,02,18,15.50
2015,05,28,02,19,15.50
2015,05,28,02,20,15.50
2015,05,28,02,21,15.50
2015,05,28,02,22,15.50
2015,05,28,02,23,15.40
2015,05,28,02,24,15.40
2015,05,28,02,25,15.40
2015,05,28,02,26,15.40
2015,05,28,02,27,15.30
2015,05,28,02,28,15.30
2015,05,28,02,29,15.20
2015,05,28,02,30,15.20
2015,05,28,02,31,15.10
2015,05,28,02,32,15.10
2015,05,28,02,33,15.00
2015,05,28,02,34,15.00
2015,05,28,02,35,14.90
2015,05,28,02,36,14.90
2015,05,28,02,37,14.90
2015,05,28,02,38,14.80
2015,05,28,02,39,14.80
2015,05,28,02,40,14.80
2015,05,28,02,41,14.80
2015,05,28,02,42,14.80
2015,05,28,02,43,14.80
2015,05,28,02,44,14.80
2015,05,28,02,45,14.80
2015,05,28,02,46,14.80
2015,05,28,02,47,14.70
2015,05,28,02,48,14.70
2015,05,28,02,49,14.70
2015,05,28,02,50,14.70
2015,05,28,02,51,14.70
2015,05,28,02,52,14.70
2015,05,28,02,53,14.70
2015,05,28,02,54,14.70
2015,05,28,02,55,14.70
2015,05,28,02,56,14.70
2015,05,28,02,57,14.70
2015,05,28,02,58,14.70
2015,05,28,02,59,14.70
2015,05,28,03,00,14.70
2015,05,28,03,01,14.70
2015,05,28,03,02,14.70
2015,05,28,03,03,14.70
2015,05,28,03,04,14.70
2015,05,28,03,05,14.60
2015,05,28,03,06,14.60
2015,05,28,03,07,14.60
2015,05,28,03,08,14.60
2015,05,28,03,09,14.60
2015,05,28,03,10,14.50
2015,05,28,03,11,14.50
2015,05,28,03,12,14.50
2015,05,28,03,13,14.40
2015,05,28,03,14,14.40
2015,05,28,03,15,14.40
2015,05,28,03,16,14.40
2015,05,28,03,17,14.40
2015,05,28,03,18,14.40
2015,05,28,03,19,14.40
2015,05,28,03,20,14.40
2015,05,28,03,21,14.40
2015,05,28,03,22,14.40
2015,05,28,03,23,14.40
2015,05,28,03,24,14.40
2015,05,28,03,25,14.40
2015,05,28,03,26,14.40
2015,05,28,03,27,14.40
2015,05,28,03,28,14.40
2015,05,28,03,29,14.40
2015,05,28,03,30,14.40
2015,05,28,03,31,14.40
2015,05,28,03,32,14.40
2015,05,28,03,33,14.40
2015,05,28,03,34,14.40
2015,05,28,03,35,14.40
2015,05,28,03,36,14.40
2015,05,28,03,37,14.40
2015,05,28,03,38,14.40
2015,05,28,03,39,14.40
2015,05,28,03,40,14.50
2015,05,28,03,41,14.50
2015,05,28,03,42,14.50
2015,05,28,03,43,14.50
2015,05,28,03,44,14.50
2015,05,28,03,45,14.50
2015,05,28,03,46,14.50
2015,05,28,03,47,14.50
2015,05,28,03,48,14.60
2015,05,28,03,49,14.60
2015,05,28,03,50,14.60
2015,05,28,03,51,14.60
2015,05,28,03,52,14.60
2015,05,28,03,53,14.60
2015,05,28,03,54,14.70
2015,05,28,03,55,14.60
2015,05,28,03,56,14.60
2015,05,28,03,57,14.60
2015,05,28,03,58,14.70
2015,05,28,03,59,14.70
2015,05,28,04,00,14.70
2015,05,28,04,01,14.70
2015,05,28,04,02,14.70
2015,05,28,04,03,14.70
2015,05,28,04,04,14.70
2015,05,28,04,05,14.70
2015,05,28,04,06,14.70
2015,05,28,04,07,14.70
2015,05,28,04,08,14.70
2015,05,28,04,09,14.70
2015,05,28,04,10,14.70
2015,05,28,04,11,14.70
2015,05,28,04,12,14.70
2015,05,28,04,13,14.70
2015,05,28,04,14,14.70
2015,05,28,04,15,14.60
2015,05,28,04,16,14.60
2015,05,28,04,17,14.60
2015,05,28,04,18,14.60
2015,05,28,04,19,14.60
2015,05,28,04,20,14.50
2015,05,28,04,21,14.50
2015,05,28,04,22,14.50
2015,05,28,04,23,14.40
2015,05,28,04,24,14.40
2015,05,28,04,25,14.40
2015,05,28,04,26,14.40
2015,05,28,04,27,14.40
2015,05,28,04,28,14.30
2015,05,28,04,29,14.30
2015,05,28,04,30,14.30
2015,05,28,04,31,14.30
2015,05,28,04,32,14.20
2015,05,28,04,33,14.20
2015,05,28,04,34,14.20
2015,05,28,04,35,14.20
2015,05,28,04,36,14.20
2015,05,28,04,37,14.10
2015,05,28,04,38,14.10
2015,05,28,04,39,14.10
2015,05,28,04,40,14.10
2015,05,28,04,41,14.10
2015,05,28,04,42,14.10
2015,05,28,04,43,14.10
2015,05,28,04,44,14.10
2015,05,28,04,45,14.10
2015,05,28,04,46,14.00
2015,05,28,04,47,14.00
2015,05,28,04,48,14.00
2015,05,28,04,49,13.90
2015,05,28,04,50,13.90
2015,05,28,04,51,13.90
2015,05,28,04,52,13.90
2015,05,28,04,53,13.90
2015,05,28,04,54,13.80
2015,05,28,04,55,13.80
2015,05,28,04,56,13.80
2015,05,28,04,57,13.70
2015,05,28,04,58,13.70
2015,05,28,04,59,13.70
2015,05,28,05,00,13.70
2015,05,28,05,01,13.60
2015,05,28,05,02,13.60
2015,05,28,05,03,13.60
2015,05,28,05,04,13.60
2015,05,28,05,05,13.60
2015,05,28,05,06,13.50
2015,05,28,05,07,13.50
2015,05,28,05,08,13.50
2015,05,28,05,09,13.40
2015,05,28,05,10,13.40
2015,05,28,05,11,13.40
2015,05,28,05,12,13.40
2015,05,28,05,13,13.30
2015,05,28,05,14,13.30
2015,05,28,05,15,13.30
2015,05,28,05,16,13.30
2015,05,28,05,17,13.30
2015,05,28,05,18,13.30
2015,05,28,05,19,13.30
2015,05,28,05,20,13.30
2015,05,28,05,21,13.30
2015,05,28,05,22,13.30
2015,05,28,05,23,13.30
2015,05,28,05,24,13.30
2015,05,28,05,25,13.30
2015,05,28,05,26,13.30
2015,05,28,05,27,13.30
2015,05,28,05,28,13.30
2015,05,28,05,29,13.30
2015,05,28,05,30,13.30
2015,05,28,05,31,13.30
2015,05,28,05,32,13.30
2015,05,28,05,33,13.30
2015,05,28,05,34,13.30
2015,05,28,05,35,13.30
2015,05,28,05,36,13.30
2015,05,28,05,37,13.30
2015,05,28,05,38,13.30
2015,05,28,05,39,13.40
2015,05,28,05,40,13.40
2015,05,28,05,41,13.40
2015,05,28,05,42,13.40
2015,05,28,05,43,13.40
2015,05,28,05,44,13.40
2015,05,28,05,45,13.40
2015,05,28,05,46,13.30
2015,05,28,05,47,13.30
2015,05,28,05,48,13.30
2015,05,28,05,49,13.30
2015,05,28,05,50,13.30
2015,05,28,05,51,13.30
2015,05,28,05,52,13.30
2015,05,28,05,53,13.30
2015,05,28,05,54,13.30
2015,05,28,05,55,13.30
2015,05,28,05,56,13.30
2015,05,28,05,57,13.30
2015,05,28,05,58,13.30
2015,05,28,05,59,13.40
2015,05,28,06,00,13.40
2015,05,28,06,01,13.40
2015,05,28,06,02,13.50
2015,05,28,06,03,13.50
2015,05,28,06,04,13.60
2015,05,28,06,05,13.60
2015,05,28,06,06,13.60
2015,05,28,06,07,13.70
2015,05,28,06,08,13.70
2015,05,28,06,09,13.80
2015,05,28,06,10,13.80
2015,05,28,06,11,13.90
2015,05,28,06,12,13.90
2015,05,28,06,13,13.90
2015,05,28,06,14,14.00
2015,05,28,06,15,14.00
2015,05,28,06,16,14.10
2015,05,28,06,17,14.10
2015,05,28,06,18,14.10
2015,05,28,06,19,14.10
2015,05,28,06,20,14.10
2015,05,28,06,21,14.10
2015,05,28,06,22,14.10
2015,05,28,06,23,14.20
2015,05,28,06,24,14.20
2015,05,28,06,25,14.20
2015,05,28,06,26,14.20
2015,05,28,06,27,14.20
2015,05,28,06,28,14.20
2015,05,28,06,29,14.20
2015,05,28,06,30,14.20
2015,05,28,06,31,14.20
2015,05,28,06,32,14.20
2015,05,28,06,33,14.20
2015,05,28,06,34,14.20
2015,05,28,06,35,14.20
2015,05,28,06,36,14.20
2015,05,28,06,37,14.20
2015,05,28,06,38,14.20
2015,05,28,06,39,14.20
2015,05,28,06,40,14.20
2015,05,28,06,41,14.20
2015,05,28,06,42,14.20
2015,05,28,06,43,14.20
2015,05,28,06,44,14.20
2015,05,28,06,45,14.20
2015,05,28,06,46,14.20
2015,05,28,06,47,14.20
2015,05,28,06,48,14.20
2015,05,28,06,49,14.20
2015,05,28,06,50,14.20
2015,05,28,06,51,14.20
2015,05,28,06,52,14.20
2015,05,28,06,53,14.20
2015,05,28,06,54,14.20
2015,05,28,06,55,14.20
2015,05,28,06,56,14.20
2015,05,28,06,57,14.20
2015,05,28,06,58,14.20
2015,05,28,06,59,14.20
2015,05,28,07,00,14.20
2015,05,28,07,01,14.20
2015,05,28,07,02,14.30
2015,05,28,07,03,14.30
2015,05,28,07,04,14.30
2015,05,28,07,05,14.30
2015,05,28,07,06,14.30
2015,05,28,07,07,14.30
2015,05,28,07,08,14.30
2015,05,28,07,09,14.40
2015,05,28,07,10,14.40
2015,05,28,07,11,14.40
2015,05,28,07,12,14.40
2015,05,28,07,13,14.40
2015,05,28,07,14,14.40
2015,05,28,07,15,14.50
2015,05,28,07,16,14.50
2015,05,28,07,17,14.50
2015,05,28,07,18,14.60
2015,05,28,07,19,14.60
2015,05,28,07,20,14.60
2015,05,28,07,21,14.60
2015,05,28,07,22,14.70
2015,05,28,07,23,14.70
2015,05,28,07,24,14.70
2015,05,28,07,25,14.80
2015,05,28,07,26,14.80
2015,05,28,07,27,14.80
2015,05,28,07,28,14.90
2015,05,28,07,29,14.90
2015,05,28,07,30,14.90
2015,05,28,07,31,14.90
2015,05,28,07,32,14.90
2015,05,28,07,33,15.00
2015,05,28,07,34,15.00
2015,05,28,07,35,15.10
2015,05,28,07,36,15.10
2015,05,28,07,37,15.10
2015,05,28,07,38,15.10
2015,05,28,07,39,15.10
2015,05,28,07,40,15.20
2015,05,28,07,41,15.20
2015,05,28,07,42,15.20
2015,05,28,07,43,15.20
2015,05,28,07,44,15.20
2015,05,28,07,45,15.20
2015,05,28,07,46,15.30
2015,05,28,07,47,15.30
2015,05,28,07,48,15.30
2015,05,28,07,49,15.40
2015,05,28,07,50,15.40
2015,05,28,07,51,15.50
2015,05,28,07,52,15.50
2015,05,28,07,53,15.50
2015,05,28,07,54,15.60
2015,05,28,07,55,15.60
2015,05,28,07,56,15.60
2015,05,28,07,57,15.70
2015,05,28,07,58,15.70
2015,05,28,07,59,15.70
2015,05,28,08,00,15.70
2015,05,28,08,01,15.70
2015,05,28,08,02,15.70
2015,05,28,08,03,15.70
2015,05,28,08,04,15.80
2015,05,28,08,05,15.80
2015,05,28,08,06,15.80
2015,05,28,08,07,15.80
2015,05,28,08,08,15.80
2015,05,28,08,09,15.80
2015,05,28,08,10,15.80
2015,05,28,08,11,15.80
2015,05,28,08,12,15.90
2015,05,28,08,13,15.90
2015,05,28,08,14,15.90
2015,05,28,08,15,15.90
2015,05,28,08,16,15.90
2015,05,28,08,17,16.00
2015,05,28,08,18,16.00
2015,05,28,08,19,16.00
2015,05,28,08,20,16.00
2015,05,28,08,21,16.10
2015,05,28,08,22,16.10
2015,05,28,08,23,16.10
2015,05,28,08,24,16.10
2015,05,28,08,25,16.10
2015,05,28,08,26,16.10
2015,05,28,08,27,16.20
2015,05,28,08,28,16.20
2015,05,28,08,29,16.20
2015,05,28,08,30,16.20
2015,05,28,08,31,16.30
2015,05,28,08,32,16.30
2015,05,28,08,33,16.30
2015,05,28,08,34,16.30
2015,05,28,08,35,16.40
2015,05,28,08,36,16.40
2015,05,28,08,37,16.40
2015,05,28,08,38,16.50
2015,05,28,08,39,16.50
2015,05,28,08,40,16.60
2015,05,28,08,41,16.60
2015,05,28,08,42,16.60
2015,05,28,08,43,16.70
2015,05,28,08,44,16.70
2015,05,28,08,45,16.70
2015,05,28,08,46,16.70
2015,05,28,08,47,16.80
2015,05,28,08,48,16.80
2015,05,28,08,49,16.90
2015,05,28,08,50,17.00
2015,05,28,08,51,17.00
2015,05,28,08,52,17.10
2015,05,28,08,53,17.10
2015,05,28,08,54,17.10
2015,05,28,08,55,17.20
2015,05,28,08,56,17.20
2015,05,28,08,57,17.20
2015,05,28,08,58,17.20
2015,05,28,08,59,17.30
2015,05,28,09,00,17.30
2015,05,28,09,01,17.30
2015,05,28,09,02,17.30
2015,05,28,09,03,17.30
2015,05,28,09,04,17.30
2015,05,28,09,05,17.30
2015,05,28,09,06,17.30
2015,05,28,09,07,17.30
2015,05,28,09,08,17.30
2015,05,28,09,09,17.40
2015,05,28,09,10,17.40
2015,05,28,09,11,17.40
2015,05,28,09,12,17.40
2015,05,28,09,13,17.40
2015,05,28,09,14,17.50
2015,05,28,09,15,17.50
2015,05,28,09,16,17.60
2015,05,28,09,17,17.60
2015,05,28,09,18,17.70
2015,05,28,09,19,17.70
2015,05,28,09,20,17.80
2015,05,28,09,21,17.80
2015,05,28,09,22,17.90
2015,05,28,09,23,18.00
2015,05,28,09,24,18.10
2015,05,28,09,25,18.10
2015,05,28,09,26,18.20
2015,05,28,09,27,18.30
2015,05,28,09,28,18.30
2015,05,28,09,29,18.40
2015,05,28,09,30,18.40
2015,05,28,09,31,18.50
2015,05,28,09,32,18.50
2015,05,28,09,33,18.60
2015,05,28,09,34,18.60
2015,05,28,09,35,18.70
2015,05,28,09,36,18.80
2015,05,28,09,37,18.80
2015,05,28,09,38,18.80
2015,05,28,09,39,18.90
2015,05,28,09,40,18.90
2015,05,28,09,41,19.00
2015,05,28,09,42,19.00
2015,05,28,09,43,19.10
2015,05,28,09,44,19.10
2015,05,28,09,45,19.10
2015,05,28,09,46,19.20
2015,05,28,09,47,19.20
2015,05,28,09,48,19.20
2015,05,28,09,49,19.20
2015,05,28,09,50,19.20
2015,05,28,09,51,19.20
2015,05,28,09,52,19.20
2015,05,28,09,53,19.10
2015,05,28,09,54,19.10
2015,05,28,09,55,19.10
2015,05,28,09,56,19.10
2015,05,28,09,57,19.10
2015,05,28,09,58,19.10
2015,05,28,09,59,19.10
2015,05,28,10,00,19.10
2015,05,28,10,01,19.10
2015,05,28,10,02,19.10
2015,05,28,10,03,19.10
2015,05,28,10,04,19.10
2015,05,28,10,05,19.10
2015,05,28,10,06,19.10
2015,05,28,10,07,19.10
2015,05,28,10,08,19.10
2015,05,28,10,09,19.00
2015,05,28,10,10,19.00
2015,05,28,10,11,18.90
2015,05,28,10,12,18.90
2015,05,28,10,13,18.90
2015,05,28,10,14,18.90
2015,05,28,10,15,18.90
2015,05,28,10,16,19.00
2015,05,28,10,17,19.00
2015,05,28,10,18,19.10
2015,05,28,10,19,19.10
2015,05,28,10,20,19.00
2015,05,28,10,21,19.00
2015,05,28,10,22,18.90
2015,05,28,10,23,18.90
2015,05,28,10,24,18.80
2015,05,28,10,25,18.80
2015,05,28,10,26,18.80
2015,05,28,10,27,18.80
2015,05,28,10,28,18.80
2015,05,28,10,29,18.90
2015,05,28,10,30,18.90
2015,05,28,10,31,18.90
2015,05,28,10,32,18.90
2015,05,28,10,33,18.90
2015,05,28,10,34,19.00
2015,05,28,10,35,19.00
2015,05,28,10,36,19.10
2015,05,28,10,37,19.20
2015,05,28,10,38,19.30
2015,05,28,10,39,19.30
2015,05,28,10,40,19.40
2015,05,28,10,41,19.40
2015,05,28,10,42,19.50
2015,05,28,10,43,19.60
2015,05,28,10,44,19.60
2015,05,28,10,45,19.70
2015,05,28,10,46,19.80
2015,05,28,10,47,19.80
2015,05,28,10,48,19.80
2015,05,28,10,49,19.80
2015,05,28,10,50,19.90
2015,05,28,10,51,19.90
2015,05,28,10,52,20.00
2015,05,28,10,53,20.00
2015,05,28,10,54,20.10
2015,05,28,10,55,20.10
2015,05,28,10,56,20.20
2015,05,28,10,57,20.20
2015,05,28,10,58,20.20
2015,05,28,10,59,20.20
2015,05,28,11,00,20.20
2015,05,28,11,01,20.30
2015,05,28,11,02,20.30
2015,05,28,11,03,20.30
2015,05,28,11,04,20.30
2015,05,28,11,05,20.30
2015,05,28,11,06,20.20
2015,05,28,11,07,20.20
2015,05,28,11,08,20.20
2015,05,28,11,09,20.30
2015,05,28,11,10,20.30
2015,05,28,11,11,20.30
2015,05,28,11,12,20.30
2015,05,28,11,13,20.30
2015,05,28,11,14,20.30
2015,05,28,11,15,20.30
2015,05,28,11,16,20.40
2015,05,28,11,17,20.40
2015,05,28,11,18,20.50
2015,05,28,11,19,20.50
2015,05,28,11,20,20.40
2015,05,28,11,21,20.40
2015,05,28,11,22,20.30
2015,05,28,11,23,20.30
2015,05,28,11,24,20.20
2015,05,28,11,25,20.20
2015,05,28,11,26,20.20
2015,05,28,11,27,20.20
2015,05,28,11,28,20.20
2015,05,28,11,29,20.30
2015,05,28,11,30,20.30
2015,05,28,11,31,20.40
2015,05,28,11,32,20.50
2015,05,28,11,33,20.60
2015,05,28,11,34,20.60
2015,05,28,11,35,20.60
2015,05,28,11,36,20.70
2015,05,28,11,37,20.70
2015,05,28,11,38,20.70
2015,05,28,11,39,20.70
2015,05,28,11,40,20.70
2015,05,28,11,41,20.80
2015,05,28,11,42,20.80
2015,05,28,11,43,20.80
2015,05,28,11,44,20.90
2015,05,28,11,45,20.90
2015,05,28,11,46,20.90
2015,05,28,11,47,20.90
2015,05,28,11,48,20.90
2015,05,28,11,49,20.90
2015,05,28,11,50,20.90
2015,05,28,11,51,21.00
2015,05,28,11,52,21.00
2015,05,28,11,53,21.00
2015,05,28,11,54,21.10
2015,05,28,11,55,21.10
2015,05,28,11,56,21.20
2015,05,28,11,57,21.20
2015,05,28,11,58,21.30
2015,05,28,11,59,21.30
2015,05,28,12,00,21.40
2015,05,28,12,01,21.40
2015,05,28,12,02,21.40
2015,05,28,12,03,21.40
2015,05,28,12,04,21.50
2015,05,28,12,05,21.50
2015,05,28,12,06,21.40
2015,05,28,12,07,21.40
2015,05,28,12,08,21.40
2015,05,28,12,09,21.40
2015,05,28,12,10,21.40
2015,05,28,12,11,21.40
2015,05,28,12,12,21.40
2015,05,28,12,13,21.40
2015,05,28,12,14,21.40
2015,05,28,12,15,21.40
2015,05,28,12,16,21.40
2015,05,28,12,17,21.40
2015,05,28,12,18,21.40
2015,05,28,12,19,21.40
2015,05,28,12,20,21.40
2015,05,28,12,21,21.30
2015,05,28,12,22,21.30
2015,05,28,12,23,21.30
2015,05,28,12,24,21.30
2015,05,28,12,25,21.30
2015,05,28,12,26,21.30
2015,05,28,12,27,21.40
2015,05,28,12,28,21.40
2015,05,28,12,29,21.50
2015,05,28,12,30,21.60
2015,05,28,12,31,21.60
2015,05,28,12,32,21.50
2015,05,28,12,33,21.40
2015,05,28,12,34,21.40
2015,05,28,12,35,21.40
2015,05,28,12,36,21.30
2015,05,28,12,37,21.30
2015,05,28,12,38,21.20
2015,05,28,12,39,21.20
2015,05,28,12,40,21.20
2015,05,28,12,41,21.20
2015,05,28,12,42,21.20
2015,05,28,12,43,21.20
2015,05,28,12,44,21.20
2015,05,28,12,45,21.30
2015,05,28,12,46,21.30
2015,05,28,12,47,21.40
2015,05,28,12,48,21.50
2015,05,28,12,49,21.50
2015,05,28,12,50,21.60
2015,05,28,12,51,21.60
2015,05,28,12,52,21.60
2015,05,28,12,53,21.60
2015,05,28,12,54,21.70
2015,05,28,12,55,21.70
2015,05,28,12,56,21.70
2015,05,28,12,57,21.80
2015,05,28,12,58,21.80
2015,05,28,12,59,21.90
2015,05,28,13,00,22.00
2015,05,28,13,01,22.10
2015,05,28,13,02,22.10
2015,05,28,13,03,22.20
2015,05,28,13,04,22.30
2015,05,28,13,05,22.40
2015,05,28,13,06,22.40
2015,05,28,13,07,22.40
2015,05,28,13,08,22.40
2015,05,28,13,09,22.40
2015,05,28,13,10,22.30
2015,05,28,13,11,22.20
2015,05,28,13,12,22.10
2015,05,28,13,13,21.90
2015,05,28,13,14,21.80
2015,05,28,13,15,21.70
2015,05,28,13,16,21.60
2015,05,28,13,17,21.60
2015,05,28,13,18,21.60
2015,05,28,13,19,21.60
2015,05,28,13,20,21.60
2015,05,28,13,21,21.70
2015,05,28,13,22,21.80
2015,05,28,13,23,21.80
2015,05,28,13,24,21.80
2015,05,28,13,25,21.90
2015,05,28,13,26,21.90
2015,05,28,13,27,21.90
2015,05,28,13,28,21.90
2015,05,28,13,29,21.90
2015,05,28,13,30,21.90
2015,05,28,13,31,21.90
2015,05,28,13,32,21.90
2015,05,28,13,33,22.00
2015,05,28,13,34,22.00
2015,05,28,13,35,22.10
2015,05,28,13,36,22.20
2015,05,28,13,37,22.20
2015,05,28,13,38,22.20
2015,05,28,13,39,22.20
2015,05,28,13,40,22.20
2015,05,28,13,41,22.20
2015,05,28,13,42,22.30
2015,05,28,13,43,22.40
2015,05,28,13,44,22.50
2015,05,28,13,45,22.60
2015,05,28,13,46,22.70
2015,05,28,13,47,22.80
2015,05,28,13,48,22.80
2015,05,28,13,49,22.80
2015,05,28,13,50,22.80
2015,05,28,13,51,22.80
2015,05,28,13,52,22.80
2015,05,28,13,53,22.80
2015,05,28,13,54,22.80
2015,05,28,13,55,22.80
2015,05,28,13,56,22.80
2015,05,28,13,57,22.80
2015,05,28,13,58,22.80
2015,05,28,13,59,22.80
2015,05,28,14,00,22.80
2015,05,28,14,01,22.80
2015,05,28,14,02,22.70
2015,05,28,14,03,22.70
2015,05,28,14,04,22.70
2015,05,28,14,05,22.70
2015,05,28,14,06,22.70
2015,05,28,14,07,22.70
2015,05,28,14,08,22.80
2015,05,28,14,09,22.80
2015,05,28,14,10,22.80
2015,05,28,14,11,22.90
2015,05,28,14,12,23.00
2015,05,28,14,13,23.10
2015,05,28,14,14,23.20
2015,05,28,14,15,23.30
2015,05,28,14,16,23.40
2015,05,28,14,17,23.40
2015,05,28,14,18,23.50
2015,05,28,14,19,23.50
2015,05,28,14,20,23.60
2015,05,28,14,21,23.60
2015,05,28,14,22,23.60
2015,05,28,14,23,23.70
2015,05,28,14,24,23.80
2015,05,28,14,25,23.80
2015,05,28,14,26,23.80
2015,05,28,14,27,23.80
2015,05,28,14,28,23.90
2015,05,28,14,29,23.90
2015,05,28,14,30,23.90
2015,05,28,14,31,23.90
2015,05,28,14,32,23.80
2015,05,28,14,33,23.80
2015,05,28,14,34,23.80
2015,05,28,14,35,23.70
2015,05,28,14,36,23.80
2015,05,28,14,37,23.80
2015,05,28,14,38,23.80
2015,05,28,14,39,23.80
2015,05,28,14,40,23.70
2015,05,28,14,41,23.70
2015,05,28,14,42,23.70
2015,05,28,14,43,23.80
2015,05,28,14,44,23.80
2015,05,28,14,45,23.80
2015,05,28,14,46,23.80
2015,05,28,14,47,23.70
2015,05,28,14,48,23.60
2015,05,28,14,49,23.60
2015,05,28,14,50,23.60
2015,05,28,14,51,23.70
2015,05,28,14,52,23.70
2015,05,28,14,53,23.80
2015,05,28,14,54,23.80
2015,05,28,14,55,23.80
2015,05,28,14,56,23.80
2015,05,28,14,57,23.80
2015,05,28,14,58,23.90
2015,05,28,14,59,24.00
2015,05,28,15,00,24.00
2015,05,28,15,01,24.10
2015,05,28,15,02,24.10
2015,05,28,15,03,24.20
2015,05,28,15,04,24.20
2015,05,28,15,05,24.20
2015,05,28,15,06,24.20
2015,05,28,15,07,24.20
2015,05,28,15,08,24.20
2015,05,28,15,09,24.10
2015,05,28,15,10,24.00
2015,05,28,15,11,24.00
2015,05,28,15,12,23.90
2015,05,28,15,13,23.90
2015,05,28,15,14,23.90
2015,05,28,15,15,23.90
2015,05,28,15,16,24.00
2015,05,28,15,17,24.10
2015,05,28,15,18,24.00
2015,05,28,15,19,23.90
2015,05,28,15,20,23.80
2015,05,28,15,21,23.80
2015,05,28,15,22,23.80
2015,05,28,15,23,23.90
2015,05,28,15,24,23.90
2015,05,28,15,25,23.90
2015,05,28,15,26,23.90
2015,05,28,15,27,23.80
2015,05,28,15,28,23.70
2015,05,28,15,29,23.70
2015,05,28,15,30,23.70
2015,05,28,15,31,23.70
2015,05,28,15,32,23.70
2015,05,28,15,33,23.70
2015,05,28,15,34,23.70
2015,05,28,15,35,23.70
2015,05,28,15,36,23.70
2015,05,28,15,37,23.70
2015,05,28,15,38,23.70
2015,05,28,15,39,23.70
2015,05,28,15,40,23.80
2015,05,28,15,41,23.90
2015,05,28,15,42,23.90
2015,05,28,15,43,24.00
2015,05,28,15,44,24.00
2015,05,28,15,45,23.90
2015,05,28,15,46,23.80
2015,05,28,15,47,23.80
2015,05,28,15,48,23.80
2015,05,28,15,49,23.80
2015,05,28,15,50,23.80
2015,05,28,15,51,23.90
2015,05,28,15,52,23.90
2015,05,28,15,53,24.00
2015,05,28,15,54,24.00
2015,05,28,15,55,23.90
2015,05,28,15,56,23.90
2015,05,28,15,57,23.80
2015,05,28,15,58,23.70
2015,05,28,15,59,23.70
2015,05,28,16,00,23.70
2015,05,28,16,01,23.80
2015,05,28,16,02,23.90
2015,05,28,16,03,23.90
2015,05,28,16,04,24.00
2015,05,28,16,05,24.00
2015,05,28,16,06,24.10
2015,05,28,16,07,24.10
2015,05,28,16,08,24.20
2015,05,28,16,09,24.20
2015,05,28,16,10,24.20
2015,05,28,16,11,24.10
2015,05,28,16,12,24.00
2015,05,28,16,13,24.00
2015,05,28,16,14,23.90
2015,05,28,16,15,23.90
2015,05,28,16,16,23.90
2015,05,28,16,17,23.90
2015,05,28,16,18,23.90
2015,05,28,16,19,23.80
2015,05,28,16,20,23.80
2015,05,28,16,21,23.70
2015,05,28,16,22,23.70
2015,05,28,16,23,23.60
2015,05,28,16,24,23.60
2015,05,28,16,25,23.60
2015,05,28,16,26,23.50
2015,05,28,16,27,23.50
2015,05,28,16,28,23.50
2015,05,28,16,29,23.50
2015,05,28,16,30,23.40
2015,05,28,16,31,23.20
2015,05,28,16,32,23.10
2015,05,28,16,33,23.10
2015,05,28,16,34,23.10
2015,05,28,16,35,23.10
2015,05,28,16,36,23.20
2015,05,28,16,37,23.20
2015,05,28,16,38,23.30
2015,05,28,16,39,23.40
2015,05,28,16,40,23.50
2015,05,28,16,41,23.60
2015,05,28,16,42,23.70
2015,05,28,16,43,23.80
2015,05,28,16,44,23.80
2015,05,28,16,45,23.80
2015,05,28,16,46,23.90
2015,05,28,16,47,24.00
2015,05,28,16,48,24.00
2015,05,28,16,49,24.00
2015,05,28,16,50,24.00
2015,05,28,16,51,24.00
2015,05,28,16,52,24.00
2015,05,28,16,53,24.10
2015,05,28,16,54,24.10
2015,05,28,16,55,24.20
2015,05,28,16,56,24.20
2015,05,28,16,57,24.20
2015,05,28,16,58,24.20
2015,05,28,16,59,24.10
2015,05,28,17,00,24.10
2015,05,28,17,01,24.10
2015,05,28,17,02,24.20
2015,05,28,17,03,24.20
2015,05,28,17,04,24.20
2015,05,28,17,05,24.20
2015,05,28,17,06,24.10
2015,05,28,17,07,24.10
2015,05,28,17,08,24.00
2015,05,28,17,09,24.00
2015,05,28,17,10,23.90
2015,05,28,17,11,23.90
2015,05,28,17,12,23.80
2015,05,28,17,13,23.70
2015,05,28,17,14,23.60
2015,05,28,17,15,23.50
2015,05,28,17,16,23.40
2015,05,28,17,17,23.40
2015,05,28,17,18,23.40
2015,05,28,17,19,23.40